Regional Weather Roundup
Issued by NWS Little Rock, AR

Home | Current Version | Previous Version | Text Only | Print | Product List | Glossary Off
Versions: 1 2 3 4 5 6 7 8 9 10 11 12 13 14 15 16 17 18 19 20 21 22 23 24 25 26 27 28 29 30 31 32 33 34 35 36 37 38 39 40 41 42 43 44 45 46 47 48 49 50

000
ASUS44 KLZK 142305
RWRLZK

WEATHER ROUNDUP FOR ARKANSAS
NATIONAL WEATHER SERVICE LITTLE ROCK AR
600 PM CDT SUN SEP 14 2014

NOTE: "FAIR" INDICATES FEW OR NO CLOUDS BELOW 12,000 FEET WITH NO
SIGNIFICANT WEATHER AND/OR OBSTRUCTIONS TO VISIBILITY.

ARZ001-003-010-029-150000-
NORTHWEST ARKANSAS

CITY           SKY/WX    TMP DP  RH WIND       PRES   REMARKS
FAYETTEVILLE   SUNNY     73  58  59 SW8       30.16S
FORT SMITH     MOSUNNY   76  58  53 SE5       30.14S
HARRISON       SUNNY     73  56  54 S7        30.17F
BENTONVILLE    SUNNY     77  57  50 S5        30.16F
ROGERS         SUNNY     76  57  51 SE7       30.16S
SILOAM SPGS    SUNNY     75  57  53 SW12      30.16S
HIGHFILL       SUNNY     76  58  53 VRB6      30.15S
SPRINGDALE     MOSUNNY   77  59  53 S9        30.17S
$$

ARZ004-005-016-150000-
NORTH CENTRAL ARKANSAS

CITY           SKY/WX    TMP DP  RH WIND       PRES   REMARKS
BATESVILLE     SUNNY     75  54  46 E5        30.17S
FLIPPIN        SUNNY     73  52  46 CALM      30.17S
MTN HOME       SUNNY     73  53  49 S5        30.17S
$$

ARZ040-041-150000-
WEST CENTRAL ARKANSAS

CITY           SKY/WX    TMP DP  RH WIND       PRES   REMARKS
MENA           SUNNY     79  64  61 CALM      30.16S
MOUNT IDA      SUNNY     76  61  59 CALM      30.14S
$$

ARZ009-017-025-026-028-150000-
NORTHEAST ARKANSAS

CITY           SKY/WX    TMP DP  RH WIND       PRES   REMARKS
CORNING          N/A     72  54  53 E6        30.18F
JONESBORO      SUNNY     73  53  49 E5        30.17F
NEWPORT        SUNNY     74  55  51 NE5       30.18F
WALNUT RIDGE   SUNNY     72  52  49 NE6       30.18S
BLYTHEVILLE    SUNNY     74  55  51 E5        30.17F
$$

ARZ022-023-033-042-044-150000-
CENTRAL ARKANSAS

CITY           SKY/WX    TMP DP  RH WIND       PRES   REMARKS
LITTLE ROCK    MOSUNNY   76  56  49 E6        30.15F
N LITTLE ROCK  MOSUNNY   76  59  55 E6        30.15F
JACKSONVILLE   SUNNY     77  57  50 E5        30.15F
SEARCY         SUNNY     74  55  51 E7        30.17F
HOT SPRINGS    SUNNY     78  59  51 E5        30.15S
RUSSELLVILLE   SUNNY     76  58  53 E3        30.15F
CLINTON        FAIR      75  57  53 E3        30.16F
$$

ARZ036-150000-
EAST ARKANSAS

CITY           SKY/WX    TMP DP  RH WIND       PRES   REMARKS
WEST MEMPHIS   MOSUNNY   75  59  57 NE6       30.15S
$$

ARZ050-053-066-070-073-150000-
SOUTHWEST ARKANSAS

CITY           SKY/WX    TMP DP  RH WIND       PRES   REMARKS
ARKADELPHIA    FAIR      78  64  61 NE3       30.14F
CAMDEN         MOSUNNY   79  63  57 N5        30.13S
TEXARKANA      PTSUNNY   79  65  62 E5        30.13S
EL DORADO      MOSUNNY   78  64  61 NE6       30.13S
DE QUEEN       MOSUNNY   78  64  61 SE5       30.12S
$$

ARZ056-057-069-150000-
SOUTHEAST ARKANSAS

CITY           SKY/WX    TMP DP  RH WIND       PRES   REMARKS
PINE BLUFF     SUNNY     76  59  55 N7        30.15S
STUTTGART      MOSUNNY   75  57  53 NE8       30.16S
MONTICELLO     SUNNY     80  60  50 NE5       30.13S

$$





USA.gov is the U.S. government's official web portal to all federal, state and local government web resources and services.